�������l�o���
Date,Time,MP-1(��Sv/h),MP-2(��Sv/h),MP-3(��Sv/h),MP-4(��Sv/h),MP-5(��Sv/h),MP-6(��Sv/h),MP-7(��Sv/h),MP-8(��Sv/h),����,����(m/s),���J
2023/03/19,00:00,0.542,0.787,0.480,0.995,0.684,0.314,0.569,0.539,�k��,7.3,��
2023/03/19,00:10,0.542,0.788,0.482,0.995,0.685,0.314,0.569,0.541,�k��,8.1,��
2023/03/19,00:20,0.541,0.786,0.481,0.993,0.684,0.315,0.569,0.542,�k�k��,7.0,��
2023/03/19,00:30,0.541,0.786,0.481,0.996,0.685,0.316,0.569,0.541,�k��,8.7,��
2023/03/19,00:40,0.541,0.787,0.480,0.993,0.686,0.314,0.569,0.540,�k�k��,7.1,��
2023/03/19,00:50,0.542,0.788,0.482,0.995,0.684,0.315,0.569,0.541,�k�k��,6.7,��
2023/03/19,01:00,0.544,0.787,0.479,0.993,0.683,0.313,0.569,0.540,�k��,6.3,��
2023/03/19,01:10,0.544,0.786,0.481,0.995,0.684,0.316,0.570,0.540,�k��,7.3,��
2023/03/19,01:20,0.542,0.784,0.480,0.993,0.685,0.313,0.569,0.541,�k��,6.9,��
2023/03/19,01:30,0.542,0.787,0.480,0.993,0.685,0.313,0.569,0.541,�k�k��,7.4,��
2023/03/19,01:40,0.542,0.787,0.480,0.993,0.686,0.315,0.570,0.542,�k�k��,7.8,��
2023/03/19,01:50,0.544,0.786,0.481,0.996,0.686,0.314,0.568,0.539,�k��,8.1,��
2023/03/19,02:00,0.544,0.786,0.481,0.994,0.686,0.315,0.569,0.542,�k��,7.7,��
2023/03/19,02:10,0.542,0.786,0.479,0.995,0.685,0.314,0.569,0.541,�k��,8.1,��
2023/03/19,02:20,0.542,0.785,0.481,0.995,0.685,0.314,0.570,0.540,�k��,8.5,��
2023/03/19,02:30,0.542,0.788,0.482,0.996,0.687,0.314,0.568,0.540,�k��,8.1,��
2023/03/19,02:40,0.542,0.786,0.481,0.995,0.686,0.313,0.570,0.542,�k�k��,7.5,��
2023/03/19,02:50,0.543,0.787,0.480,0.995,0.687,0.314,0.569,0.540,�k��,9.0,��
2023/03/19,03:00,0.543,0.786,0.481,0.994,0.684,0.315,0.570,0.540,�k��,8.1,��
2023/03/19,03:10,0.540,0.790,0.482,0.995,0.686,0.313,0.569,0.541,�k��,7.2,��
2023/03/19,03:20,0.543,0.789,0.481,0.993,0.685,0.314,0.568,0.541,�k��,8.1,��
2023/03/19,03:30,0.543,0.789,0.479,0.996,0.686,0.315,0.569,0.542,�k��,7.6,��
2023/03/19,03:40,0.542,0.787,0.480,0.995,0.686,0.315,0.569,0.541,�k�k��,6.0,��
2023/03/19,03:50,0.542,0.788,0.481,0.994,0.687,0.315,0.570,0.542,�k�k��,5.8,��
2023/03/19,04:00,0.542,0.787,0.481,0.995,0.686,0.315,0.570,0.541,�k�k��,4.6,��
2023/03/19,04:10,0.543,0.788,0.481,0.997,0.687,0.315,0.568,0.541,�k�k��,5.7,��
2023/03/19,04:20,0.543,0.786,0.479,0.996,0.688,0.315,0.569,0.543,�k��,6.4,��
2023/03/19,04:30,0.542,0.787,0.481,0.996,0.686,0.315,0.571,0.541,�k��,6.7,��
2023/03/19,04:40,0.543,0.788,0.481,0.995,0.685,0.316,0.570,0.542,�k��,7.8,��
2023/03/19,04:50,0.543,0.787,0.479,0.997,0.687,0.316,0.569,0.541,�k��,6.7,��
2023/03/19,05:00,0.542,0.787,0.481,0.997,0.687,0.314,0.569,0.542,���k��,7.8,��
2023/03/19,05:10,0.543,0.788,0.481,0.996,0.688,0.314,0.571,0.542,���k��,8.0,��
2023/03/19,05:20,0.542,0.789,0.481,0.995,0.686,0.316,0.570,0.542,���k��,8.0,��
2023/03/19,05:30,0.543,0.786,0.480,0.995,0.688,0.315,0.570,0.541,���k��,6.3,��
2023/03/19,05:40,0.543,0.788,0.480,0.997,0.687,0.313,0.570,0.542,���k��,5.6,��
2023/03/19,05:50,0.543,0.787,0.480,0.994,0.687,0.314,0.569,0.540,�k��,5.7,��
2023/03/19,06:00,0.541,0.788,0.479,0.997,0.686,0.314,0.570,0.541,�k��,5.9,��
2023/03/19,06:10,0.541,0.788,0.479,0.997,0.688,0.315,0.569,0.543,�k��,5.6,��
2023/03/19,06:20,0.542,0.788,0.480,0.997,0.688,0.314,0.570,0.542,�k��,5.3,��
2023/03/19,06:30,0.542,0.788,0.480,0.996,0.687,0.314,0.570,0.542,�k��,4.8,��
2023/03/19,06:40,0.543,0.787,0.481,0.996,0.689,0.315,0.570,0.541,�k��,4.6,��
2023/03/19,06:50,0.544,0.789,0.481,0.996,0.688,0.315,0.569,0.541,�k��,5.0,��
2023/03/19,07:00,0.542,0.789,0.481,0.998,0.689,0.314,0.570,0.541,���k��,5.3,��
2023/03/19,07:10,0.544,0.789,0.481,0.998,0.687,0.316,0.570,0.541,�k��,6.0,��
2023/03/19,07:20,0.544,0.789,0.481,0.998,0.688,0.313,0.570,0.541,�k��,6.3,��
2023/03/19,07:30,0.544,0.790,0.480,0.996,0.687,0.314,0.569,0.542,���k��,6.1,��
2023/03/19,07:40,0.543,0.790,0.481,0.995,0.689,0.315,0.570,0.543,���k��,6.9,��
2023/03/19,07:50,0.543,0.791,0.483,0.997,0.690,0.315,0.570,0.542,�k��,6.3,��
2023/03/19,08:00,0.544,0.791,0.482,0.998,0.687,0.315,0.571,0.542,�k��,5.8,��
2023/03/19,08:10,0.545,0.790,0.482,0.999,0.691,0.315,0.570,0.541,�k��,5.3,��
2023/03/19,08:20,0.545,0.791,0.482,1.000,0.690,0.316,0.570,0.543,�k��,5.0,��
2023/03/19,08:30,0.546,0.791,0.483,0.999,0.691,0.315,0.570,0.542,�k��,7.4,��
2023/03/19,08:40,0.547,0.789,0.484,0.999,0.691,0.315,0.572,0.543,�k�k��,8.7,��
2023/03/19,08:50,0.544,0.791,0.482,0.999,0.691,0.315,0.570,0.542,�k��,5.8,��
2023/03/19,09:00,0.546,0.792,0.484,0.998,0.691,0.317,0.571,0.543,�k�k��,6.4,��
2023/03/19,09:10,0.549,0.789,0.484,0.999,0.689,0.315,0.572,0.545,�k�k��,5.4,��
2023/03/19,09:20,0.547,0.792,0.485,1.000,0.692,0.316,0.570,0.542,�k�k��,7.2,��
2023/03/19,09:30,0.547,0.791,0.483,1.001,0.692,0.316,0.569,0.544,�k�k��,5.0,��
2023/03/19,09:40,0.547,0.792,0.485,1.002,0.691,0.316,0.569,0.543,�k�k��,5.3,��
2023/03/19,09:50,0.548,0.790,0.485,0.999,0.694,0.315,0.570,0.544,�k�k��,4.3,��
2023/03/19,10:00,0.549,0.792,0.485,1.002,0.694,0.315,0.569,0.543,�k��,6.0,��
2023/03/19,10:10,0.549,0.796,0.484,1.001,0.695,0.317,0.570,0.542,�k�k��,5.2,��
2023/03/19,10:20,0.549,0.793,0.485,1.001,0.695,0.316,0.569,0.542,�k��,5.8,��
2023/03/19,10:30,0.548,0.795,0.486,1.001,0.694,0.316,0.569,0.540,�k��,8.4,��
2023/03/19,10:40,0.549,0.795,0.486,1.004,0.697,0.316,0.570,0.541,�k��,7.2,��
2023/03/19,10:50,0.549,0.794,0.486,1.003,0.696,0.315,0.570,0.542,�k��,5.5,��
2023/03/19,11:00,0.548,0.795,0.486,1.004,0.698,0.315,0.571,0.542,���k��,6.6,��
2023/03/19,11:10,0.549,0.794,0.486,1.004,0.696,0.316,0.570,0.542,���k��,6.8,��
2023/03/19,11:20,0.549,0.796,0.487,1.003,0.697,0.315,0.571,0.543,�k��,7.5,��
2023/03/19,11:30,0.550,0.795,0.486,1.003,0.696,0.315,0.571,0.543,�k��,7.4,��
2023/03/19,11:40,0.551,0.798,0.489,1.003,0.695,0.315,0.573,0.541,�k��,9.1,��
2023/03/19,11:50,0.551,0.797,0.488,1.006,0.695,0.316,0.570,0.544,�k��,7.0,��
2023/03/19,12:00,0.548,0.798,0.490,1.006,0.697,0.315,0.571,0.543,�k��,8.3,��
2023/03/19,12:10,0.550,0.799,0.488,1.006,0.698,0.316,0.571,0.543,�k��,7.7,��
2023/03/19,12:20,0.550,0.800,0.488,1.004,0.697,0.315,0.570,0.543,�k��,5.9,��
2023/03/19,12:30,0.550,0.797,0.488,1.008,0.697,0.316,0.571,0.542,�k��,8.2,��
2023/03/19,12:40,0.552,0.800,0.489,1.006,0.698,0.317,0.573,0.543,�k��,7.0,��
2023/03/19,12:50,0.550,0.799,0.488,1.009,0.700,0.319,0.574,0.544,�k��,5.5,��
2023/03/19,13:00,0.550,0.800,0.489,1.008,0.699,0.318,0.571,0.545,�k��,4.8,��
2023/03/19,13:10,0.551,0.801,0.489,1.007,0.698,0.319,0.572,0.543,�k��,6.3,��
2023/03/19,13:20,0.552,0.801,0.488,1.008,0.698,0.318,0.573,0.545,�k��,5.9,��
2023/03/19,13:30,0.552,0.799,0.490,1.008,0.699,0.318,0.573,0.544,�k��,6.2,��
2023/03/19,13:40,0.552,0.801,0.489,1.008,0.700,0.317,0.572,0.543,�k��,5.4,��
2023/03/19,13:50,0.554,0.801,0.489,1.008,0.699,0.319,0.573,0.543,�k��,3.6,��
2023/03/19,14:00,0.553,0.801,0.488,1.007,0.701,0.317,0.572,0.545,���k��,4.9,��
2023/03/19,14:10,0.551,0.803,0.489,1.009,0.700,0.317,0.574,0.545,��,1.5,��
2023/03/19,14:20,0.553,0.803,0.487,1.008,0.701,0.317,0.572,0.543,���쓌,3.8,��
2023/03/19,14:30,0.553,0.803,0.489,1.006,0.702,0.316,0.572,0.544,��쓌,4.2,��
2023/03/19,14:40,0.551,0.803,0.489,1.009,0.703,0.317,0.574,0.545,��쓌,5.1,��
2023/03/19,14:50,0.554,0.803,0.489,1.009,0.702,0.317,0.572,0.545,�쓌,5.2,��
2023/03/19,15:00,0.552,0.805,0.490,1.007,0.700,0.318,0.571,0.544,�쓌,4.7,��
2023/03/19,15:10,0.552,0.802,0.490,1.010,0.700,0.318,0.572,0.545,��쓌,5.1,��
2023/03/19,15:20,0.552,0.803,0.491,1.009,0.703,0.318,0.572,0.544,�쓌,5.2,��
2023/03/19,15:30,0.552,0.804,0.491,1.010,0.703,0.317,0.572,0.545,�쓌,5.3,��
2023/03/19,15:40,0.552,0.805,0.491,1.006,0.701,0.318,0.573,0.544,��쓌,5.0,��
2023/03/19,15:50,0.552,0.806,0.489,1.008,0.700,0.318,0.572,0.546,��쓌,4.9,��
2023/03/19,16:00,0.552,0.805,0.490,1.007,0.702,0.318,0.572,0.543,��쓌,5.9,��
2023/03/19,16:10,0.551,0.804,0.490,1.010,0.703,0.318,0.572,0.543,��쓌,4.4,��
2023/03/19,16:20,0.553,0.804,0.491,1.010,0.704,0.318,0.572,0.544,��쓌,5.0,��
2023/03/19,16:30,0.553,0.807,0.491,1.010,0.704,0.319,0.572,0.546,��쓌,4.7,��
2023/03/19,16:40,0.552,0.806,0.492,1.008,0.703,0.320,0.572,0.548,��쓌,4.5,��
2023/03/19,16:50,0.555,0.805,0.491,1.010,0.703,0.319,0.572,0.547,��쓌,5.9,��
2023/03/19,17:00,0.553,0.807,0.490,1.009,0.702,0.318,0.571,0.547,��쓌,5.5,��
2023/03/19,17:10,0.553,0.806,0.493,1.009,0.703,0.319,0.574,0.546,��쓌,6.2,��
2023/03/19,17:20,0.555,0.805,0.492,1.009,0.703,0.319,0.572,0.545,��,6.4,��
2023/03/19,17:30,0.554,0.806,0.490,1.010,0.702,0.319,0.573,0.546,��,7.4,��
2023/03/19,17:40,0.555,0.806,0.491,1.009,0.702,0.319,0.574,0.546,��,6.7,��
2023/03/19,17:50,0.553,0.807,0.491,1.013,0.704,0.317,0.574,0.546,��,6.9,��
2023/03/19,18:00,0.554,0.807,0.491,1.007,0.706,0.318,0.573,0.546,��,6.7,��
2023/03/19,18:10,0.554,0.804,0.491,1.010,0.705,0.318,0.575,0.546,��,6.1,��
2023/03/19,18:20,0.555,0.806,0.491,1.009,0.704,0.319,0.574,0.544,��쐼,4.3,��
2023/03/19,18:30,0.555,0.806,0.493,1.009,0.703,0.317,0.573,0.544,��쐼,4.7,��
2023/03/19,18:40,0.555,0.806,0.490,1.010,0.705,0.318,0.573,0.547,��쐼,4.6,��
2023/03/19,18:50,0.555,0.806,0.491,1.009,0.703,0.317,0.574,0.545,��쐼,3.4,��
2023/03/19,19:00,0.552,0.807,0.491,1.007,0.706,0.318,0.573,0.544,�쐼,2.0,��
2023/03/19,19:10,0.553,0.805,0.490,1.008,0.703,0.318,0.573,0.545,���쐼,2.9,��
2023/03/19,19:20,0.554,0.805,0.491,1.009,0.704,0.318,0.573,0.545,��,2.5,��
2023/03/19,19:30,0.555,0.805,0.491,1.010,0.704,0.317,0.572,0.545,���k��,2.2,��
2023/03/19,19:40,0.553,0.807,0.489,1.010,0.705,0.318,0.574,0.545,��,1.5,��
2023/03/19,19:50,0.556,0.805,0.491,1.009,0.703,0.318,0.574,0.545,���쐼,1.7,��
2023/03/19,20:00,0.555,0.806,0.492,1.009,0.703,0.318,0.572,0.544,���쐼,2.0,��
2023/03/19,20:10,0.552,0.804,0.490,1.008,0.704,0.318,0.573,0.545,��,2.3,��
2023/03/19,20:20,0.553,0.806,0.491,1.010,0.704,0.319,0.573,0.544,���k��,2.2,��
2023/03/19,20:30,0.552,0.806,0.489,1.007,0.705,0.316,0.573,0.545,�k��,2.3,��
2023/03/19,20:40,0.554,0.806,0.490,1.008,0.704,0.317,0.572,0.544,�k�k��,2.3,��
2023/03/19,20:50,0.553,0.804,0.490,1.010,0.704,0.318,0.573,0.545,�k��,2.0,��
2023/03/19,21:00,0.554,0.805,0.490,1.009,0.704,0.317,0.573,0.546,��,1.4,��
2023/03/19,21:10,0.552,0.805,0.491,1.009,0.704,0.318,0.571,0.546,���쐼,2.0,��
2023/03/19,21:20,0.553,0.805,0.490,1.010,0.703,0.317,0.572,0.546,���쐼,3.8,��
2023/03/19,21:30,0.553,0.805,0.489,1.008,0.704,0.317,0.570,0.545,���쐼,4.9,��
2023/03/19,21:40,0.552,0.806,0.490,1.009,0.705,0.319,0.572,0.545,��,4.4,��
2023/03/19,21:50,0.553,0.804,0.490,1.010,0.705,0.317,0.573,0.544,��,4.4,��
2023/03/19,22:00,0.553,0.807,0.490,1.010,0.704,0.317,0.572,0.545,���k��,4.3,��
2023/03/19,22:10,0.553,0.807,0.489,1.009,0.705,0.317,0.573,0.544,���k��,3.2,��
2023/03/19,22:20,0.553,0.805,0.490,1.009,0.705,0.317,0.573,0.545,���k��,2.8,��
2023/03/19,22:30,0.553,0.804,0.490,1.011,0.704,0.317,0.574,0.546,���k��,4.1,��
2023/03/19,22:40,0.552,0.804,0.490,1.010,0.705,0.316,0.573,0.544,�k��,4.2,��
2023/03/19,22:50,0.553,0.805,0.489,1.009,0.704,0.317,0.572,0.546,�k��,4.5,��
2023/03/19,23:00,0.554,0.805,0.489,1.010,0.706,0.317,0.571,0.545,�k��,4.0,��
2023/03/19,23:10,0.553,0.804,0.489,1.010,0.703,0.317,0.572,0.545,���k��,3.2,��
2023/03/19,23:20,0.552,0.804,0.490,1.010,0.705,0.316,0.572,0.546,���쐼,4.9,��
2023/03/19,23:30,0.552,0.805,0.490,1.008,0.704,0.317,0.572,0.544,���쐼,5.1,��
2023/03/19,23:40,0.553,0.805,0.490,1.009,0.704,0.317,0.573,0.546,���k��,4.1,��
2023/03/19,23:50,0.553,0.806,0.490,1.010,0.703,0.317,0.572,0.545,��,3.5,��
